Date String (YYYY-MM-DD hh:mm:ss) UTC,Instrument flags,Ambient pressure (hPa),Sample flow (lpm),Bypass flow (lpm),Sample temperature (°C),Ambient temperature (°C),ASC tube jacket temperature (°C),LED temperature (°C),Box temperature (°C),Sample RH (%),Span deviation,Mass concentration (μg/m³),Mass concentration (μg/m³),Mass concentration (μg/m³)
DateTimeUTC,F1_M11,P_M11,Q1_M11,Q2_M11,T1_M11,T2_M11,T3_M11,T4_M11,T5_M11,U1_M11,ZSPAN_M11,X0_M11,X2_M11,X1_M11
2022-04-22 21:00:00,,0805.7,5.00,0.00,29.4,26.8,00.0,38.3,31.0,05.8,0000.0,0016.39,0004.79,0002.38
2022-04-22 21:01:00,,0805.7,5.00,0.00,29.4,27.3,00.0,38.3,31.1,05.8,0000.0,0016.27,0004.78,0002.36
2022-04-22 21:02:00,,0805.6,4.99,0.00,29.4,27.7,00.0,38.3,31.2,05.6,0000.0,0017.58,0004.81,0002.35
2022-04-22 21:03:00,,0805.5,5.00,0.00,29.5,27.9,00.0,38.3,31.3,05.7,0000.0,0018.73,0004.79,0002.34
2022-04-22 21:04:00,,0805.3,5.01,0.00,29.5,28.2,00.0,38.3,31.3,05.5,0000.0,0020.54,0004.80,0002.34
2022-04-22 21:05:00,,0805.4,4.97,0.00,29.6,28.3,00.0,38.3,31.4,05.4,0000.0,0021.85,0004.86,0002.34
2022-04-22 21:06:00,,0805.4,5.03,0.00,29.6,28.5,00.0,38.4,31.4,05.5,0000.0,0022.56,0004.95,0002.34
2022-04-22 21:07:00,,0805.3,5.00,0.00,29.7,28.4,00.0,38.4,31.5,05.5,0000.0,0022.76,0004.94,0002.34
2022-04-22 21:08:00,,0805.1,5.00,0.00,29.6,26.7,00.0,38.4,31.1,05.5,0000.0,0022.76,0004.90,0002.34
2022-04-22 21:09:00,,0805.1,5.01,0.00,29.5,25.5,00.0,38.4,30.9,05.5,0000.0,0022.44,0004.89,0002.34
2022-04-22 21:10:00,,0805.2,5.00,0.00,29.4,25.9,00.0,38.4,30.9,05.6,0000.0,0023.06,0004.91,0002.32
2022-04-22 21:11:00,,0805.2,4.99,0.00,29.4,26.3,00.0,38.3,31.0,05.6,0000.0,0024.40,0005.03,0002.33
2022-04-22 21:12:00,,0805.2,5.00,0.00,29.4,26.8,00.0,38.3,31.0,05.0,0000.0,0024.45,0005.12,0002.34
2022-04-22 21:13:00,,0805.2,5.01,0.00,29.4,27.2,00.0,38.3,31.1,05.2,0000.0,0024.74,0005.12,0002.32
2022-04-22 21:14:00,,0805.2,4.99,0.00,29.4,27.6,00.0,38.3,31.2,05.1,0000.0,0025.25,0005.19,0002.34
2022-04-22 21:15:00,,0805.1,4.99,0.00,29.5,27.9,00.0,38.3,31.3,05.7,0000.0,0024.90,0005.27,0002.37
2022-04-22 21:16:00,,0805.1,5.01,0.00,29.5,28.1,00.0,38.3,31.3,05.6,0000.0,0024.09,0005.29,0002.35
2022-04-22 21:17:00,,0805.1,5.00,0.00,29.5,28.3,00.0,38.3,31.4,05.4,0000.0,0024.53,0005.31,0002.33
2022-04-22 21:18:00,,0804.9,4.99,0.00,29.6,28.5,00.0,38.3,31.4,05.7,0000.0,0023.71,0005.38,0002.33
2022-04-22 21:19:00,,0804.9,5.01,0.00,29.6,28.5,00.0,38.4,31.5,05.5,0000.0,0023.86,0005.41,0002.32
2022-04-22 21:20:00,,0804.9,4.99,0.00,29.6,27.2,00.0,38.4,31.2,05.6,0000.0,0025.20,0005.45,0002.31
2022-04-22 21:21:00,,0804.9,5.00,0.00,29.5,25.4,00.0,38.4,30.9,05.7,0000.0,0025.42,0005.47,0002.29
2022-04-22 21:22:00,,0804.8,5.01,0.00,29.4,25.5,00.0,38.3,30.8,05.4,0000.0,0023.83,0005.34,0002.25
2022-04-22 21:23:00,,0804.8,4.99,0.00,29.3,26.0,00.0,38.3,30.9,05.4,0000.0,0024.97,0005.33,0002.22
2022-04-22 21:24:00,,0804.8,5.01,0.00,29.3,26.5,00.0,38.3,30.9,05.5,0000.0,0024.41,0005.39,0002.25
2022-04-22 21:25:00,,0804.8,5.00,0.00,29.3,26.9,00.0,38.2,31.0,05.7,0000.0,0024.19,0005.51,0002.28
2022-04-22 21:26:00,,0804.7,4.99,0.00,29.3,27.3,00.0,38.2,31.1,05.6,0000.0,0024.62,0005.50,0002.24
2022-04-22 21:27:00,,0804.9,5.00,0.00,29.4,27.5,00.0,38.2,31.2,05.5,0000.0,0025.45,0005.52,0002.24
2022-04-22 21:28:00,,0804.8,5.01,0.00,29.4,27.8,00.0,38.2,31.2,05.5,0000.0,0025.46,0005.49,0002.24
2022-04-22 21:29:00,,0804.8,4.98,0.00,29.4,28.0,00.0,38.3,31.2,05.6,0000.0,0025.30,0005.43,0002.23
2022-04-22 21:30:00,,0804.8,5.02,0.00,29.5,28.2,00.0,38.3,31.3,05.5,0000.0,0025.40,0005.42,0002.24
2022-04-22 21:31:00,,0804.9,4.99,0.00,29.5,28.3,00.0,38.3,31.4,05.4,0000.0,0024.27,0005.39,0002.26
2022-04-22 21:32:00,,0804.8,4.99,0.00,29.5,28.4,00.0,38.3,31.4,05.5,0000.0,0023.86,0005.41,0002.29
2022-04-22 21:33:00,,0804.7,5.02,0.00,29.6,28.5,00.0,38.3,31.5,05.2,0000.0,0025.33,0005.58,0002.33
2022-04-22 21:34:00,,0804.7,5.01,0.00,29.6,27.9,00.0,38.4,31.4,05.0,0000.0,0026.15,0005.65,0002.33
2022-04-22 21:35:00,,0804.7,4.98,0.00,29.5,25.8,00.0,38.4,30.9,05.1,0000.0,0027.29,0005.67,0002.30
2022-04-22 21:36:00,,0804.7,5.01,0.00,29.3,25.2,00.0,38.3,30.7,05.0,0000.0,0026.82,0005.66,0002.27
2022-04-22 21:37:00,,0804.7,4.99,0.00,29.3,25.7,00.0,38.3,30.8,05.1,0000.0,0026.18,0005.73,0002.29
2022-04-22 21:38:00,,0804.6,5.01,0.00,29.2,26.1,00.0,38.2,30.9,05.0,0000.0,0026.25,0005.80,0002.29
2022-04-22 21:39:00,,0804.6,5.00,0.00,29.3,26.6,00.0,38.2,30.9,05.1,0000.0,0027.85,0005.86,0002.29
2022-04-22 21:40:00,,0804.5,4.99,0.00,29.3,27.1,00.0,38.2,31.0,05.1,0000.0,0028.55,0006.00,0002.31
2022-04-22 21:41:00,,0804.5,5.02,0.00,29.3,27.4,00.0,38.2,31.1,05.1,0000.0,0028.25,0005.99,0002.31
2022-04-22 21:42:00,,0804.4,4.98,0.00,29.3,27.7,00.0,38.2,31.1,05.1,0000.0,0027.58,0005.96,0002.31
2022-04-22 21:43:00,,0804.4,5.01,0.00,29.4,27.9,00.0,38.2,31.2,05.4,0000.0,0028.44,0006.02,0002.30
2022-04-22 21:44:00,,0804.4,5.00,0.00,29.4,28.1,00.0,38.2,31.2,05.4,0000.0,0028.34,0005.99,0002.29
2022-04-22 21:45:00,,0804.3,4.99,0.00,29.5,28.3,00.0,38.3,31.3,05.4,0000.0,0028.01,0006.02,0002.30
2022-04-22 21:46:00,,0804.2,5.01,0.00,29.5,28.4,00.0,38.3,31.4,05.3,0000.0,0027.34,0006.04,0002.33
2022-04-22 21:47:00,,0804.2,4.99,0.00,29.5,28.5,00.0,38.3,31.4,05.1,0000.0,0027.52,0006.06,0002.34
2022-04-22 21:48:00,,0804.2,5.00,0.00,29.6,28.6,00.0,38.3,31.4,05.0,0000.0,0029.15,0006.13,0002.34
2022-04-22 21:49:00,,0804.1,4.99,0.00,29.6,28.6,00.0,38.4,31.4,04.9,0000.0,0029.92,0006.21,0002.35
2022-04-22 21:50:00,,0804.2,5.00,0.00,29.6,26.9,00.0,38.4,31.2,04.8,0000.0,0029.75,0006.31,0002.37
2022-04-22 21:51:00,,0804.2,5.01,0.00,29.4,25.3,00.0,38.4,30.8,04.6,0000.0,0031.19,0006.38,0002.39
2022-04-22 21:52:00,,0804.2,5.01,0.00,29.3,25.5,00.0,38.3,30.8,04.6,0000.0,0031.70,0006.51,0002.41
2022-04-22 21:53:00,,0804.2,4.99,0.00,29.3,26.0,00.0,38.3,30.9,04.7,0000.0,0032.40,0006.73,0002.42
2022-04-22 21:54:00,,0804.2,5.00,0.00,29.3,26.5,00.0,38.3,30.9,04.7,0000.0,0034.08,0006.82,0002.43
2022-04-22 21:55:00,,0804.2,5.01,0.00,29.3,26.9,00.0,38.2,31.0,04.8,0000.0,0034.47,0006.87,0002.45
2022-04-22 21:56:00,,0804.2,4.99,0.00,29.3,27.3,00.0,38.2,31.1,04.9,0000.0,0034.79,0007.00,0002.49
2022-04-22 21:57:00,,0804.3,5.00,0.00,29.4,27.7,00.0,38.2,31.1,04.9,0000.0,0036.11,0007.07,0002.51
2022-04-22 21:58:00,,0804.3,5.01,0.00,29.4,27.9,00.0,38.2,31.2,04.9,0000.0,0036.93,0007.15,0002.51
2022-04-22 21:59:00,,0804.3,5.00,0.00,29.4,28.1,00.0,38.2,31.3,04.9,0000.0,0036.80,0007.24,0002.52
